GW1885 Weather Reports


time (UTC)temp
C
wind
direction
speed
KPH
gust
KPH
rain 1hr
cm
rain 24hr
cm
rain mn
cm
humidity
%
barometer
mb
20260505214004 7 0 0.0 0.0 0.00 0.23 0.23 98 1010.0
20260505213526 7 0 0.0 0.0 0.00 0.23 0.23 98 1009.8
20260505213005 7 0 0.0 0.0 0.00 0.23 0.23 98 1009.9
20260505212505 7 0 0.0 0.0 0.00 0.23 0.23 97 1010.1
20260505212025 7 0 0.0 0.0 0.00 0.23 0.23 97 1010.1
20260505211504 7 0 0.0 0.0 0.00 0.23 0.23 97 1010.0
20260505211005 7 0 0.0 0.0 0.00 0.23 0.23 97 1009.9
20260505210505 7 0 0.0 0.0 0.00 0.23 0.23 97 1010.1
20260505210006 7 0 0.0 0.0 0.00 0.23 0.23 97 1010.0
20260505205505 7 0 0.0 0.0 0.00 0.23 0.23 97 1010.0
20260505205026 8 0 0.0 0.0 0.00 0.23 0.23 97 1009.9
20260505204504 8 0 0.0 0.0 0.00 0.23 0.23 97 1010.0
20260505204006 8 0 0.0 0.0 0.00 0.23 0.23 97 1009.9
20260505203504 8 0 0.0 0.0 0.00 0.23 0.23 97 1009.9
20260505203004 8 0 0.0 0.0 0.00 0.23 0.23 97 1009.9
20260505202504 8 0 0.0 0.0 0.00 0.23 0.23 97 1009.9
20260505202006 8 0 0.0 0.0 0.00 0.23 0.23 96 1009.9
20260505201505 8 349 0.0 1.6 0.00 0.23 0.23 96 1010.1
20260505201004 8 349 0.0 1.6 0.00 0.23 0.23 96 1010.1
20260505200504 9 0 0.0 0.0 0.00 0.23 0.23 96 1010.0
20260505200004 9 0 0.0 0.0 0.00 0.23 0.23 96 1009.7
20260505195505 9 350 0.0 1.6 0.00 0.23 0.23 96 1009.9
20260505195005 9 350 0.0 3.2 0.00 0.23 0.23 96 1009.8
20260505194505 9 350 0.0 3.2 0.00 0.23 0.23 96 1009.8
20260505194004 9 0 0.0 0.0 0.00 0.23 0.23 96 1009.9
20260505193525 10 351 0.0 1.6 0.00 0.23 0.23 96 1009.9
20260505193004 10 351 0.0 1.6 0.00 0.23 0.23 96 1009.9
20260505192505 10 352 0.0 1.6 0.00 0.23 0.23 96 1010.0
20260505192005 10 352 0.0 1.6 0.00 0.23 0.23 96 1009.8
20260505191504 10 351 0.0 1.6 0.00 0.23 0.23 96 1009.8
20260505191004 10 351 0.0 1.6 0.00 0.23 0.23 96 1009.8
20260505190505 10 0 0.0 0.0 0.00 0.23 0.23 96 1009.6
20260505190005 10 0 0.0 0.0 0.00 0.23 0.23 96 1009.7
20260505185525 10 0 0.0 0.0 0.00 0.23 0.23 96 1009.8
20260505185004 10 0 0.0 0.0 0.00 0.23 0.23 95 1009.8
20260505184526 10 0 0.0 0.0 0.00 0.23 0.23 95 1009.7
20260505184005 10 351 0.0 1.6 0.00 0.23 0.23 95 1009.7
20260505183505 10 351 0.0 1.6 0.00 0.23 0.23 95 1009.8
20260505183005 10 352 0.0 1.6 0.00 0.23 0.23 95 1009.9
20260505182505 10 354 0.0 1.6 0.00 0.23 0.23 95 1009.7
20260505182005 10 353 0.0 4.8 0.00 0.23 0.23 95 1009.6
20260505181504 10 353 0.0 4.8 0.00 0.23 0.23 95 1009.8
20260505181005 10 0 0.0 0.0 0.00 0.23 0.23 94 1009.5
20260505180504 10 356 0.0 1.6 0.00 0.23 0.23 94 1009.6
20260505180026 10 356 0.0 3.2 0.00 0.23 0.23 93 1009.6
20260505175505 10 356 0.0 3.2 0.00 0.23 0.23 93 1009.5
20260505175004 10 352 0.0 3.2 0.00 0.23 0.23 93 1009.6
20260505174504 10 353 0.0 3.2 0.00 0.23 0.23 93 1009.5
20260505174004 10 354 0.0 3.2 0.00 0.23 0.23 93 1009.6
20260505173504 10 354 0.0 1.6 0.00 0.23 0.23 92 1009.6
20260505173005 10 354 0.0 1.6 0.00 0.23 0.23 92 1009.6
20260505172504 10 355 0.0 1.6 0.00 0.23 0.23 93 1009.7
20260505172005 10 355 0.0 1.6 0.00 0.23 0.23 93 1009.7
20260505171506 10 355 0.0 1.6 0.00 0.23 0.23 92 1009.8
20260505171025 10 356 0.0 3.2 0.00 0.23 0.23 93 1009.8
20260505170505 10 357 0.0 3.2 0.00 0.23 0.23 93 1009.7
20260505170004 10 1 0.0 1.6 0.00 0.23 0.23 93 1009.8
20260505165504 10 1 0.0 1.6 0.00 0.23 0.23 92 1009.8
20260505165005 10 2 0.0 3.2 0.00 0.23 0.23 92 1009.7
20260505164505 10 4 0.0 4.8 0.00 0.23 0.23 92 1009.7
20260505164005 10 3 1.6 4.8 0.00 0.23 0.23 92 1009.7
20260505163505 10 360 1.6 3.2 0.00 0.23 0.23 93 1009.8
20260505163025 10 1 1.6 4.8 0.00 0.23 0.23 93 1009.8
20260505162504 10 2 1.6 4.8 0.00 0.23 0.23 92 1009.8
20260505162004 10 3 0.0 4.8 0.00 0.23 0.23 92 1009.8
20260505161505 10 4 0.0 1.6 0.00 0.23 0.23 93 1009.9
20260505161005 10 3 0.0 1.6 0.00 0.23 0.23 93 1009.7
20260505160526 10 3 0.0 3.2 0.00 0.23 0.23 92 1009.8
20260505153004 10 348 0.0 3.2 0.00 0.23 0.23 92 1009.9
20260505152505 10 348 0.0 1.6 0.03 0.23 0.23 93 1010.1
20260505152004 10 347 0.0 1.6 0.03 0.23 0.23 92 1010.1
20260505151504 10 352 0.0 3.2 0.03 0.23 0.23 94 1010.1
20260505151005 10 353 0.0 3.2 0.03 0.23 0.23 93 1010.1
20260505150525 10 356 0.0 3.2 0.03 0.23 0.23 93 1010.1
20260505140504 10 347 0.0 3.2 0.00 0.20 0.20 93 1010.5
20260505125004 10 275 0.0 1.6 0.10 0.18 0.18 93 1011.0
20260505124504 10 275 0.0 1.6 0.13 0.18 0.18 93 1011.0
20260505124005 10 0 0.0 0.0 0.13 0.18 0.18 94 1010.9
20260505123505 10 0 0.0 0.0 0.13 0.18 0.18 93 1011.0
20260505123004 10 275 0.0 3.2 0.13 0.15 0.15 93 1011.0
20260505122525 10 275 0.0 3.2 0.13 0.15 0.15 92 1011.1
20260505122005 10 275 0.0 1.6 0.13 0.15 0.15 92 1011.2
20260505121504 10 275 0.0 3.2 0.10 0.13 0.13 91 1011.1
20260505121004 10 275 0.0 3.2 0.10 0.13 0.13 91 1011.2
20260505120505 10 276 0.0 3.2 0.10 0.13 0.13 91 1011.2
20260505120005 10 274 0.0 3.2 0.10 0.10 0.10 89 1011.3
20260505115505 10 268 0.0 3.2 0.10 0.10 0.10 90 1011.2
20260505115004 10 265 0.0 3.2 0.10 0.10 0.10 89 1011.0
20260505114504 10 269 0.0 4.8 0.08 0.08 0.08 88 1011.0
20260505114025 10 274 0.0 4.8 0.05 0.05 0.05 85 1011.0
20260505113504 11 280 1.6 4.8 0.05 0.05 0.05 85 1010.9
20260505113005 11 305 1.6 6.4 0.05 0.05 0.05 84 1010.8
20260505112504 11 345 1.6 6.4 0.03 0.03 0.03 84 1010.9
20260505112005 11 7 0.0 4.8 0.03 0.03 0.03 82 1010.8
20260505111505 12 338 1.6 6.4 0.03 0.03 0.03 84 1010.8
20260505111004 12 317 1.6 6.4 0.00 0.00 0.00 82 1010.8
20260505110504 12 325 1.6 6.4 0.00 0.00 0.00 78 1010.8
20260505102004 15 289 1.6 9.7 0.00 0.00 0.00 57 1010.5
20260505101505 15 278 1.6 9.7 0.00 0.00 0.00 55 1010.4
20260505101004 15 277 1.6 4.8 0.00 0.00 0.00 55 1010.4
20260505100505 16 278 1.6 4.8 0.00 0.00 0.00 54 1010.4
20260505100004 16 285 1.6 6.4 0.00 0.00 0.00 54 1010.4
20260505095504 16 339 1.6 6.4 0.00 0.00 0.00 55 1010.6
20260505095004 16 320 1.6 6.4 0.00 0.00 0.00 54 1010.7
20260505094505 16 214 1.6 6.4 0.00 0.00 0.00 53 1010.6
20260505094005 16 234 3.2 6.4 0.00 0.00 0.00 53 1010.6
20260505093505 16 277 1.6 6.4 0.00 0.00 0.00 52 1010.7
20260505093005 16 283 1.6 6.4 0.00 0.00 0.00 52 1010.8
20260505092505 16 38 1.6 4.8 0.00 0.00 0.00 53 1010.6
20260505092004 16 55 1.6 3.2 0.00 0.00 0.00 52 1010.8
20260505091504 16 41 1.6 4.8 0.00 0.00 0.00 51 1010.7
20260505091004 16 301 1.6 4.8 0.00 0.00 0.00 57 1010.8
20260505090505 15 250 1.6 4.8 0.00 0.00 0.00 52 1010.7
20260505090005 15 159 1.6 6.4 0.00 0.00 0.00 47 1010.8
20260505085504 15 290 1.6 6.4 0.00 0.00 0.00 51 1010.7
20260505085025 15 304 1.6 6.4 0.00 0.00 0.00 54 1010.6
20260505084526 15 305 1.6 6.4 0.00 0.00 0.00 56 1010.8
20260505084025 14 294 1.6 4.8 0.00 0.00 0.00 56 1010.9
20260505083504 14 284 3.2 4.8 0.00 0.00 0.00 58 1010.7
20260505083004 14 279 1.6 4.8 0.00 0.00 0.00 62 1010.7
20260505082505 14 277 1.6 4.8 0.00 0.00 0.00 59 1010.6
20260505082025 14 281 1.6 4.8 0.00 0.00 0.00 58 1010.7
20260505081525 14 284 1.6 4.8 0.00 0.00 0.00 60 1010.5
20260505081005 14 302 1.6 4.8 0.00 0.00 0.00 66 1010.8
20260505080504 14 32 1.6 4.8 0.00 0.00 0.00 61 1010.8
20260505080025 13 119 1.6 3.2 0.00 0.00 0.00 65 1010.9
20260505075505 13 133 1.6 4.8 0.00 0.00 0.00 67 1010.7
20260505075004 13 152 1.6 4.8 0.00 0.00 0.00 64 1010.7
20260505074504 13 152 3.2 4.8 0.00 0.00 0.00 67 1011.1
20260505074005 12 152 3.2 4.8 0.00 0.00 0.00 66 1010.9
20260505073503 12 150 1.6 4.8 0.00 0.00 0.00 65 1011.0
20260505073004 12 141 1.6 9.7 0.00 0.00 0.00 70 1011.0
20260505072504 12 137 3.2 9.7 0.00 0.00 0.00 70 1011.0
20260505072005 12 136 3.2 6.4 0.00 0.00 0.00 73 1010.9
20260505071504 12 135 1.6 4.8 0.00 0.00 0.00 72 1011.1
20260505071005 12 135 3.2 4.8 0.00 0.00 0.00 73 1010.8
20260505070505 11 138 1.6 4.8 0.00 0.00 0.00 74 1011.0
20260505070004 11 140 1.6 4.8 0.00 0.00 0.00 74 1010.9
20260505065525 11 137 1.6 4.8 0.00 0.00 0.00 72 1010.8
20260505065005 11 126 1.6 3.2 0.00 0.00 0.00 75 1010.9
20260505064505 11 126 0.0 1.6 0.00 0.00 0.00 78 1010.6
20260505064004 11 140 1.6 3.2 0.00 0.00 0.00 78 1010.8
20260505063504 11 162 1.6 3.2 0.00 0.00 0.00 79 1011.1
20260505063026 11 205 0.0 3.2 0.00 0.00 0.00 83 1011.0
20260505062504 11 205 0.0 3.2 0.00 0.00 0.00 80 1010.8
20260505062005 10 206 0.0 3.2 0.00 0.00 0.00 82 1010.9
20260505061505 10 190 1.6 3.2 0.00 0.00 0.00 86 1010.8
20260505061026 10 164 1.6 3.2 0.00 0.00 0.00 86 1011.0
20260505060505 10 150 1.6 3.2 0.00 0.00 0.00 90 1011.0
20260505060004 10 150 3.2 6.4 0.00 0.00 0.00 91 1011.1
20260505055505 10 153 3.2 6.4 0.00 0.00 0.00 96 1011.1
20260505055004 10 154 3.2 6.4 0.00 0.00 0.00 98 1011.4
20260505054504 9 150 1.6 4.8 0.00 0.00 0.00 99 1011.2
20260505054004 8 149 1.6 3.2 0.00 0.00 0.00 99 1011.2
20260505053524 8 148 3.2 4.8 0.00 0.00 0.00 99 1011.1
20260505053025 8 149 3.2 4.8 0.00 0.00 0.00 99 1011.2
20260505052503 7 149 3.2 4.8 0.00 0.00 0.00 99 1011.2
20260505052005 7 151 3.2 3.2 0.00 0.00 0.00 99 1011.2
20260505051505 7 154 3.2 4.8 0.00 0.00 0.00 99 1011.2
20260505051004 7 156 1.6 4.8 0.00 0.00 0.00 99 1011.2
20260505050503 6 157 1.6 4.8 0.00 0.00 0.00 99 1011.1
20260505041503 5 158 1.6 3.2 0.00 0.00 0.00 99 1011.1
20260505041004 5 158 1.6 3.2 0.00 0.00 0.00 99 1011.1
20260505040503 4 158 1.6 1.6 0.00 0.00 0.00 99 1011.0
20260505040026 4 158 1.6 1.6 0.00 0.00 0.00 99 1011.1
20260505035504 4 158 0.0 1.6 0.00 0.00 0.00 99 1011.3
20260505035004 4 158 1.6 1.6 0.00 0.00 0.00 99 1011.1
20260505034504 3 158 0.0 1.6 0.00 0.00 0.00 99 1011.2
20260505034004 3 158 1.6 1.6 0.00 0.00 0.00 99 1011.1
20260505033505 3 158 1.6 3.2 0.00 0.00 0.00 99 1011.2
20260505033025 3 159 1.6 3.2 0.00 0.00 0.00 99 1011.3
20260505032504 3 159 1.6 1.6 0.00 0.00 0.00 99 1011.3
20260505032004 4 159 0.0 1.6 0.00 0.00 0.00 99 1011.1
20260505031504 4 159 0.0 1.6 0.00 0.00 0.00 99 1011.1
20260505031004 4 159 0.0 3.2 0.00 0.00 0.00 99 1011.2
20260505030503 4 159 0.0 3.2 0.00 0.00 0.00 99 1011.2
20260505030005 4 160 0.0 1.6 0.00 0.00 0.00 99 1011.1
20260505025504 4 160 0.0 1.6 0.00 0.00 0.00 99 1011.4
20260505025004 4 160 1.6 3.2 0.00 0.00 0.00 99 1011.3
20260505024504 4 160 1.6 3.2 0.00 0.00 0.00 99 1011.3
20260505024003 5 160 1.6 3.2 0.00 0.00 0.00 99 1011.3
20260505023503 5 160 1.6 3.2 0.00 0.00 0.00 99 1011.3
20260505023004 5 160 0.0 1.6 0.00 0.00 0.00 99 1011.4
20260505022504 4 160 0.0 1.6 0.00 0.00 0.00 99 1011.2
20260505022004 5 160 0.0 1.6 0.00 0.00 0.00 99 1011.1
20260505021503 5 160 1.6 3.2 0.00 0.00 0.00 99 1011.4
20260505021004 5 159 1.6 3.2 0.00 0.00 0.00 99 1011.5
20260505020505 4 159 1.6 3.2 0.00 0.00 0.00 99 1011.5
20260505020005 4 159 1.6 3.2 0.00 0.00 0.00 99 1011.5
20260505015504 4 160 1.6 3.2 0.00 0.00 0.00 99 1011.3
20260505015003 4 160 1.6 3.2 0.00 0.00 0.00 99 1011.3
20260505014505 4 161 1.6 4.8 0.00 0.00 0.00 98 1011.5
20260505014004 4 161 1.6 4.8 0.00 0.00 0.00 99 1011.4
20260505013525 4 161 1.6 3.2 0.00 0.00 0.00 98 1011.4
20260505013003 4 162 1.6 3.2 0.00 0.00 0.00 98 1011.4
20260505012525 5 162 1.6 3.2 0.00 0.00 0.00 98 1011.2
20260505012003 5 162 3.2 4.8 0.00 0.00 0.00 99 1011.5
20260505011503 5 161 1.6 4.8 0.00 0.00 0.00 99 1011.4
20260505011004 5 159 1.6 4.8 0.00 0.00 0.00 99 1011.3
20260505010503 5 158 3.2 4.8 0.00 0.00 0.00 98 1011.3
20260505010005 5 157 1.6 3.2 0.00 0.00 0.00 98 1011.4
20260505005504 5 157 1.6 3.2 0.00 0.00 0.00 98 1011.5
20260505005004 5 157 1.6 4.8 0.00 0.00 0.00 98 1011.4
20260505004525 5 156 1.6 4.8 0.00 0.00 0.00 98 1011.3
20260505004004 5 155 1.6 4.8 0.00 0.00 0.00 98 1011.3
20260505003504 5 154 1.6 4.8 0.00 0.00 0.00 98 1011.3
20260505003005 6 153 1.6 4.8 0.00 0.00 0.00 98 1011.5
20260505002504 5 153 0.0 1.6 0.00 0.00 0.00 98 1011.5
20260505002003 5 153 1.6 3.2 0.00 0.00 0.00 98 1011.5
20260505001524 6 153 1.6 3.2 0.00 0.00 0.00 98 1011.4
20260505001004 6 153 1.6 4.8 0.00 0.00 0.00 98 1011.6
20260505000504 6 153 1.6 4.8 0.00 0.00 0.00 98 1011.6
20260505000003 6 153 1.6 3.2 0.00 0.00 0.00 98 1011.4
20260504235524 6 152 1.6 3.2 0.00 0.00 0.00 98 1011.6
20260504235003 6 151 1.6 3.2 0.00 0.00 0.00 98 1011.6
20260504234503 6 151 1.6 3.2 0.00 0.00 0.00 98 1011.7
20260504234025 6 149 1.6 3.2 0.00 0.00 0.00 98 1011.6
20260504233525 6 148 1.6 3.2 0.00 0.00 0.00 98 1011.7
20260504233003 6 148 1.6 1.6 0.00 0.00 0.00 98 1011.7
20260504232525 6 148 1.6 3.2 0.00 0.00 0.00 98 1011.6
20260504232003 6 148 1.6 3.2 0.00 0.00 0.00 98 1011.8
20260504231504 6 147 1.6 3.2 0.00 0.00 0.00 98 1011.9
20260504231004 6 147 1.6 3.2 0.00 0.00 0.00 98 1011.9
20260504230503 6 147 1.6 3.2 0.00 0.00 0.00 98 1012.0
20260504230005 6 147 0.0 1.6 0.00 0.00 0.00 98 1011.9
20260504225504 6 147 0.0 1.6 0.00 0.00 0.00 98 1012.0
20260504225004 6 147 0.0 1.6 0.00 0.00 0.00 98 1011.9
20260504224525 6 147 0.0 1.6 0.00 0.00 0.00 98 1011.8
20260504224025 6 147 0.0 3.2 0.00 0.00 0.00 98 1011.9
20260504223503 6 147 1.6 3.2 0.00 0.00 0.00 98 1012.0
20260504223003 6 147 1.6 3.2 0.00 0.00 0.00 98 1012.0
20260504222504 6 146 1.6 3.2 0.00 0.00 0.00 97 1012.0
20260504222003 6 144 1.6 3.2 0.00 0.00 0.00 97 1012.0
20260504221504 6 143 1.6 3.2 0.00 0.00 0.00 97 1012.1
20260504221004 6 142 1.6 3.2 0.00 0.00 0.00 97 1012.1
20260504220524 6 148 1.6 3.2 0.00 0.00 0.00 97 1012.1
20260504220004 6 155 1.6 3.2 0.00 0.00 0.00 97 1012.1
20260504215504 6 158 1.6 1.6 0.00 0.00 0.00 96 1012.2
20260504215004 6 158 1.6 3.2 0.00 0.00 0.00 96 1012.1
20260504214503 6 158 1.6 3.2 0.00 0.00 0.00 96 1012.1